Regional Weather Roundup
Issued by NWS

Home | Current Version | Previous Version | Text Only | Print | Product List | Glossary On
Versions: 1 2 3 4 5 6 7 8 9 10 11 12 13 14 15 16 17 18 19 20 21 22 23 24 25 26 27 28 29 30 31 32 33 34 35 36 37 38 39 40 41 42 43 44 45 46 47 48 49 50
572
ASUS44 KLIX 292001
RWRLA
LOUISIANA WEATHER ROUNDUP
NATIONAL WEATHER SERVICE NEW ORLEANS LA
300 PM CDT FRI AUG 29 2014

NOTE: "FAIR" INDICATES FEW OR NO CLOUDS BELOW 12,000 FEET WITH NO
      SIGNIFICANT WEATHER AND/OR OBSTRUCTIONS TO VISIBILITY.
      SKY/WX - SKY CONDITION AND SIGNIFICANT WEATHER.
      TMP - AIR TEMPERATURE.    DP   - DEWPOINT TEMPERATURE.
      RH  - RELATIVE HUMIDITY.  PRES - PRESSURE.
      HX  - HEAT INDEX.         WCI  - WIND CHILL INDEX.

*  THESE STATIONS ARE NOT NWS OR FAA STATIONS AND ARE NOT UNDER
   NWS QUALITY CONTROL.

LAZ040-048-061>063-065-066-069-292100-
SOUTHEAST LOUISIANA

CITY           SKY/WX    TMP DP  RH WIND       PRES   REMARKS
N.O. AUDUBON     N/A     78  77  95 MISG        N/A
N.O. INTL ARPT LGT RAIN  78  74  87 SE7       29.96F
N.O. LAKEFRONT CLOUDY    79  75  87 SE9       29.97S
N.O. DOWNTOWN* MOCLDY    79  72  78 S3        29.98R
SLIDELL        CLOUDY    84  76  76 SE5       29.97R
BATON ROUGE    LGT RAIN  79  76  90 S9        29.94F
BOOTHVILLE     LGT RAIN  79  77  94 SW5       29.98R FOG
BELLE CHASSE   LGT RAIN  78  72  81 CALM      29.96F
BOGALUSA*      FAIR      87  76  69 CALM      29.98S HX  96
GALLIANO*      NOT AVBL
NEW ROADS*     FAIR      81  74  81 S7        29.95S
GONZALES*      LGT RAIN  77  77 100 CALM      29.93F
HAMMOND*       NOT AVBL
HOUMA*         LGT RAIN  75  73  94 CALM      29.95F
PORT FOURCHON* CLEAR     77  73  88 CALM      29.98S

$$

LAZ041-044-053-054-292100-
SOUTHWEST LOUISIANA

CITY           SKY/WX    TMP DP  RH WIND       PRES   REMARKS
LAKE CHARLES   LGT RAIN  80  74  81 SE10      29.94R
LAFAYETTE      CLOUDY    82  73  74 VRB5      29.94F
PATTERSON        N/A     79  75  89 SE7       29.96F
SALT POINT       N/A     84  76  76 VRB6      29.93F
NEW IBERIA     LGT RAIN  83  74  74 E10       29.94F
CHENAULT AIRPK NOT AVBL

$$

LAZ027-028-292100-
CENTRAL LOUISIANA

CITY           SKY/WX    TMP DP  RH WIND       PRES   REMARKS
FORT POLK      PTSUNNY   86  73  65 SE10      29.93R
ALEXANDRIA INT PTSUNNY   89  71  55 S9        29.92S HX  95
ALEXANDRIA     PTSUNNY   89  72  56 SE7       29.93F HX  96

$$

LAZ001-002-292100-
NORTHWEST LOUISIANA

CITY           SKY/WX    TMP DP  RH WIND       PRES   REMARKS
SHREVEPORT     MOSUNNY   93  64  38 SE12      29.87F
BARKSDALE AFB  SUNNY     95  65  37 SE13      29.88F HX  97
DTN SHREVEPORT SUNNY     93  67  42 SE13      29.88F HX  96

$$

LAZ014-016-292100-
NORTHEAST LOUISIANA

CITY           SKY/WX    TMP DP  RH WIND       PRES   REMARKS
MONROE         MOSUNNY   92  68  45 S10       29.93F HX  96
TALLULAH       MOSUNNY   91  67  44 S10       29.94F

$$




USA.gov is the U.S. government's official web portal to all federal, state and local government web resources and services.